www.pogodaiklimat.ru
ПОГОДА в Беллере
Время
и дата
16:35 14.01
16:55 14.01
17:15 14.01
17:35 14.01
17:55 14.01
18:15 14.01
18:35 14.01
18:55 14.01
19:15 14.01
19:35 14.01
19:55 14.01
20:15 14.01
20:35 14.01
20:55 14.01
21:15 14.01
21:35 14.01
21:55 14.01
22:15 14.01
22:35 14.01
22:55 14.01
23:15 14.01
23:35 14.01
23:55 14.01
00:15 15.01
00:35 15.01
00:55 15.01
01:15 15.01
01:35 15.01
01:55 15.01
02:15 15.01
02:35 15.01
02:55 15.01
03:15 15.01
03:35 15.01
03:55 15.01
04:15 15.01
04:35 15.01
04:55 15.01
05:15 15.01
05:35 15.01
05:55 15.01
06:15 15.01
06:35 15.01
06:55 15.01
07:15 15.01
07:35 15.01
07:55 15.01
08:15 15.01
Ветер
(напр.,м/с)
Видим. Явления Облачность Т
(С)
Тd
(С)
f
(%)
Тe
(С)
Тes
(С)
Комфортность P
(гПа)
Po
(гПа)
Тmin
(С)
Tmax
(С)
R
(мм)
R24
(мм)
S
(см)
В 2 16 км 10/10 540 м +3.1 -0.7 76 -1 -1 980.9
ЮВ 2 16 км 10/10 540 м +3.0 -0.7 77 -2 -2 981.2
ЮВ 2
{4}
11 км 10/10 540 м +2.7 -0.7 78 -3 -3 981.5
ЮВ 2 16 км 10/10 480 м +2.5 -0.7 79 -3 -3 981.5
ЮВ 1 11 км 10/10 480 м +2.3 -0.7 81 -2 -2 981.5
В 1 11 км 10/10 480 м +2.3 -0.7 81 -1 -1 981.2
штиль 0 11 км 10/10 480 м +2.2 -0.7 81 +1 +1 981.2
ЮВ 1 11 км 10/10 420 м +2.1 -0.7 82 -1 -1 981.2 +2.1 +3.2
штиль 0 11 км 10/10 420 м +2.1 -0.6 82 +1 +1 981.2
В 1 11 км 10/10 420 м +2.1 -0.6 82 -1 -1 980.9
штиль 0 11 км 10/10 420 м +2.1 -0.5 83 +1 +1 980.9
В 1 11 км 10/10 420 м +2.1 -0.5 83 -2 -2 980.5
ЮВ 2 11 км 10/10 360 м +2.1 -0.3 84 -3 -3 980.9
В 1 11 км 10/10 360 м +2.3 -0.2 84 -2 -2 981.2
В 1 11 км 10/10 360 м +2.4 -0.1 84 -2 -2 981.2
В 1 11 км 10/10 360 м +2.5 -0.1 83 -1 -1 980.9
В 2 11 км 10/10 360 м +2.5 0.0 84 -2 -2 980.9
В 1 11 км 10/10 420 м +2.6 0.0 83 -1 -1 980.5
В 1 11 км 10/10 420 м +2.7 0.0 82 0 0 980.2
В 1 11 км 10/10 420 м +2.9 0.0 81 -1 -1 980.2
В 1 11 км 10/10 480 м +3.0 -0.1 80 -1 -1 980.5
В 1 11 км 10/10 480 м +3.0 0.0 81 0 0 980.2
В 2 11 км 10/10 480 м +3.1 0.0 80 -2 -2 979.9
В 2
{3}
11 км 10/10 480 м +3.2 0.0 80 -2 -2 979.5
В 1 11 км 10/10 480 м +3.2 0.0 80 -1 -1 979.5
В 1 11 км 10/10 540 м +3.3 0.0 79 -1 -1 979.5 +2.0 +3.3
ЮВ 1 11 км 10/10 540 м +3.3 0.0 79 -1 -1 979.9
В 1 16 км 10/10 540 м +3.3 0.0 79 0 0 979.5
В 1 16 км 10/10 540 м +3.5 0.0 78 0 0 979.5
В 2 16 км 10/10 600 м +3.4 0.0 78 -1 -1 979.5
В 2 16 км 8/5 600 м
[Ac]
+3.5 -0.1 77 -1 -1 979.5
В 2 16 км 5/5 600 м
[Ac]
+3.5 -0.2 77 -1 -1 979.5
В 2
{4}
16 км 8/8 930 м
[Ac]
+3.5 -0.3 76 -1 -1 979.2
В 2 16 км 10/5 930 м
[Ac]
+3.4 -0.3 77 -1 -1 978.9
В 2
{4}
16 км 10/5 1050 м
[Ac]
+3.5 -0.3 76 -1 -1 978.9
В 1 16 км 10/8 1050 м
[Ac]
+3.4 -0.2 77 0 0 978.9
В 2
{3}
16 км 10/8 600 м
[Ac]
+3.4 -0.2 77 -1 -1 978.9
В 2
{4}
16 км 10/5 1110 м
[Ac]
+3.5 0.0 78 -1 -1 978.9
В 2 16 км 10/5 570 м
[Ac]
+3.5 0.0 78 -2 -2 978.9
В 2 16 км 10/8 570 м
[Ac]
+3.5 0.0 78 -1 -1 978.9
В 2 16 км 10/8 570 м
[Ac]
+3.5 0.0 78 -1 -1 978.9
В 2
{3}
16 км 10/10 570 м +3.5 0.0 78 -1 -1 978.2
В 2 16 км 10/10 570 м +3.6 0.0 77 -1 -1 978.2
В 1 16 км 10/8 570 м
[Ac]
+3.7 0.0 77 0 0 978.2 +3.2 +3.7
В 1 16 км 10/10 570 м +3.7 0.0 77 0 0 978.2
В 2
{4}
16 км 10/10 570 м +3.6 0.0 77 -1 -1 978.2
В 1
{4}
16 км 10/10 570 м +3.7 0.0 77 0 0 978.2
В 1
{4}
16 км 10/10 570 м +3.6 0.0 77 0 0 978.2
Местоположение метеостанции Antrim County Airport: широта 44.9883 долгота -85.1983 высота над уровнем моря 190 м.
В архиве по умолчанию представлена погода в Беллере за последние 1-2 суток. Обновление информации о фактической погоде в базе происходит ежечасно! Архивные данные за месяц целиком и за предыдущие месяцы Вы можете получить, выбрав интересующий диапазон дат из раскрывающегося списка и нажав кнопку "Ввод!".
Внимание! Архив погоды МЕТАР в базе сайта по станциям, не включенным в климатический монитор, хранится не более 60 дней. Нет смысла пытаться выбрать более раннюю дату.
*Определитесь, кто Вы:
Внимание! Время в таблицах - местное (без учета летнего времени). Для получения всемирного времени необходимо вычесть поправку, которая равна -5 ч.
Смотрите также архив погоды в соседних городах и на ближайших метеорологических станциях:
Партнеры нашего сайта:      
Пояснения к столбцам:
  • Ветер - указаны скорость ветра в м/с - средняя за 10 мин, порывы в срок и между сроками (в фигурных скобках) и направление, откуда дует ветер: С - северный,
  • СВ - северо-восточный, В - восточный, ЮВ - юго-восточный, Ю - южный, ЮЗ - юго-западный, З - западный, СЗ - северо-западный.
  • Видимость - горизонтальная дальность видимости в метрах или километрах. При видимости от 1 до 10 км при отсутствии осадков обычно наблюдается дымка, при ухудшении видимости до 1 км и менее - туман. В сухую погоду видимость может ухудшаться дымом, пылью или мглою.
  • Явления - указаны атмосферные явления, наблюдавшиеся в срок или в последний час перед сроком; фигурными скобками обозначены явления, наблюдавшиеся между сроками (за 1-3 часа до срока); квадратными скобками обозначены град или гололедные отложения с указанием их диаметра в мм.
  • Облачность - указаны через наклонную черту общая и нижняя облачность в баллах и высота нижней границы облаков в метрах; квадратными скобками обозначены формы облаков: Ci - перистые, Cs - перисто-слоистые, Cc - перисто-кучевые, Ac - высококучевые, As - высокослоистые, Sc - слоисто-кучевые, Ns - слоисто-дождевые, Cu - кучевые, Cb - кучево-дождевые. Подробнее классификацию облаков см. в Атласе облаков (PDF).
  • T - Температура воздуха - температура, измеренная на высоте 2 м над землей.
  • Td - Температура точки росы - температура, при понижении до которой содержащийся в воздухе водяной пар достигнет насыщения.
  • f - Относительная влажность воздуха - влажноcть воздуха, измеренная на высоте 2 м над землей.
  • Te - Эффективная температура - температура, которую ощущает одетый по сезону человек в тени. Характеристика душности погоды. При расчете учитывается влияние влажности воздуха и скорости ветра на теплоощущения человека.
  • Tes - Эффективная температура на солнце - температура, которую ощущает человек, с поправкой на солнечный нагрев. Характеристика знойности погоды. Зависит от высоты солнца над горизонтом, облачности и скорости ветра. Ночью, в пасмурную погоду, а также при ветре 12 м/с и более поправка равна нулю.
  • P - Атмосферное давление - приведенное к уровню моря атмосферное давление.
  • Po - Атмосферное давление - измеренное на уровне метеостанции атмосферное давление.
  • Tmin - Минимальная температура - минимум температуры воздуха на высоте 2 м над землей.
  • Tmax - Максимальная температура - максимум температуры воздуха на высоте 2 м над землей.
  • R - Количество осадков - Количество выпавших осадков за период времени, мм. При наведении курсора мыши на число - период времени, за который выпало указанное количество осадков.
  • R24 - Количество осадков - Количество выпавших осадков за 24 часа, мм.
  • S - Снежный покров - Высота снежного покрова, см. При наведении курсора мыши на число - состояние снежного покрова и степень покрытия местности в баллах.